,,,PA_Meas_PMT16A,,PR_Meas_QMR101_102,,RH_Meas_QMH101,,SR_Meas_QMS101,,TA_Meas_QMH101,,GenWind,,GenWind,
date,time,status,PA,status,PR,status,RH,status,SR,status,TA,status,DirAvg,status,SpdAvg,
2010-03-22, 00:00:04,VALID,999.418,VALID,0,VALID,91.1511,VALID,0,VALID,23.9744,VALID,67,VALID,0,
2010-03-22, 00:01:04,VALID,999.419,VALID,0,VALID,91.2197,VALID,0,VALID,23.9921,VALID,72,VALID,0,
2010-03-22, 00:02:04,VALID,999.418,VALID,0,VALID,90.9756,VALID,0,VALID,23.9726,VALID,72,VALID,0,
2010-03-22, 00:03:04,VALID,999.441,VALID,0,VALID,91.0748,VALID,0,VALID,24.0134,VALID,72,VALID,0,
2010-03-22, 00:04:04,VALID,999.425,VALID,0,VALID,91.1587,VALID,0,VALID,24.0329,VALID,73,VALID,0,
2010-03-22, 00:05:04,VALID,999.416,VALID,0,VALID,91.3037,VALID,0,VALID,24.0701,VALID,107,VALID,0,
2010-03-22, 00:06:04,VALID,999.409,VALID,0,VALID,91.0977,VALID,0,VALID,24.111,VALID,107,VALID,0,
2010-03-22, 00:07:04,VALID,999.406,VALID,0,VALID,91.1511,VALID,0,VALID,24.1092,VALID,107,VALID,0,
2010-03-22, 00:08:04,VALID,999.396,VALID,0,VALID,91.0977,VALID,0,VALID,24.1287,VALID,107,VALID,0,
2010-03-22, 00:09:04,VALID,999.377,VALID,0,VALID,91.1434,VALID,0,VALID,24.15,VALID,107,VALID,0,
2010-03-22, 00:10:04,VALID,999.357,VALID,0,VALID,91.1129,VALID,0,VALID,24.15,VALID,107,VALID,0,
2010-03-22, 00:11:04,VALID,999.327,VALID,0,VALID,91.1434,VALID,0.112286,VALID,24.1482,VALID,107,VALID,0,
2010-03-22, 00:12:04,VALID,999.304,VALID,0,VALID,90.9985,VALID,0,VALID,24.1287,VALID,108,VALID,0,
2010-03-22, 00:13:04,VALID,999.298,VALID,0,VALID,91.0366,VALID,0,VALID,24.1305,VALID,108,VALID,0,
2010-03-22, 00:14:04,VALID,999.287,VALID,0,VALID,91.0671,VALID,0,VALID,24.1305,VALID,108,VALID,0,
2010-03-22, 00:15:04,VALID,999.255,VALID,0,VALID,91.174,VALID,0,VALID,24.15,VALID,108,VALID,0,
2010-03-22, 00:16:04,VALID,999.231,VALID,0,VALID,90.968,VALID,0,VALID,24.1305,VALID,108,VALID,0,
2010-03-22, 00:17:04,VALID,999.205,VALID,0,VALID,91.1053,VALID,0,VALID,24.111,VALID,108,VALID,0,
2010-03-22, 00:18:04,VALID,999.223,VALID,0,VALID,91.0519,VALID,0,VALID,24.1305,VALID,108,VALID,0,
2010-03-22, 00:19:04,VALID,999.206,VALID,0,VALID,91.029,VALID,0,VALID,24.15,VALID,108,VALID,0,
2010-03-22, 00:20:04,VALID,999.179,VALID,0,VALID,90.9069,VALID,0,VALID,24.1305,VALID,108,VALID,0,
2010-03-22, 00:21:04,VALID,999.199,VALID,0,VALID,90.823,VALID,0,VALID,24.1305,VALID,108,VALID,0,
2010-03-22, 00:22:04,VALID,999.196,VALID,0,VALID,90.762,VALID,0,VALID,24.1324,VALID,108,VALID,0.709766,
2010-03-22, 00:23:04,VALID,999.183,VALID,0,VALID,90.6551,VALID,0,VALID,24.111,VALID,108,VALID,0.538281,
2010-03-22, 00:24:04,VALID,999.202,VALID,0,VALID,90.6628,VALID,0,VALID,24.0915,VALID,108,VALID,0.204688,
2010-03-22, 00:25:04,VALID,999.196,VALID,0,VALID,90.6857,VALID,0,VALID,24.072,VALID,108,VALID,0,
2010-03-22, 00:26:04,VALID,999.188,VALID,0,VALID,90.617,VALID,0,VALID,24.0525,VALID,108,VALID,0,
2010-03-22, 00:27:04,VALID,999.198,VALID,0,VALID,90.6628,VALID,0,VALID,24.0525,VALID,108,VALID,0,
2010-03-22, 00:28:04,VALID,999.171,VALID,0,VALID,90.5941,VALID,0,VALID,24.0329,VALID,108,VALID,0,
2010-03-22, 00:29:04,VALID,999.152,VALID,0,VALID,90.5331,VALID,0,VALID,23.9939,VALID,108,VALID,0,
2010-03-22, 00:30:04,VALID,999.104,VALID,0,VALID,90.5254,VALID,0,VALID,23.9531,VALID,108,VALID,0,
2010-03-22, 00:31:04,VALID,999.123,VALID,0,VALID,90.5331,VALID,0,VALID,23.9354,VALID,108,VALID,0,
2010-03-22, 00:32:04,VALID,999.08,VALID,0,VALID,90.8154,VALID,0,VALID,23.9159,VALID,108,VALID,0,
2010-03-22, 00:33:04,VALID,999.08,VALID,0,VALID,90.7696,VALID,0,VALID,23.9549,VALID,108,VALID,0,
2010-03-22, 00:34:04,VALID,999.039,VALID,0,VALID,90.7772,VALID,0,VALID,23.9354,VALID,100,VALID,0,
2010-03-22, 00:35:04,VALID,999.026,VALID,0,VALID,90.7009,VALID,0,VALID,23.9354,VALID,101,VALID,0,
2010-03-22, 00:36:04,VALID,999.039,VALID,0,VALID,90.7849,VALID,0,VALID,23.9159,VALID,101,VALID,0,
2010-03-22, 00:37:04,VALID,999.016,VALID,0,VALID,90.7391,VALID,0,VALID,23.8963,VALID,101,VALID,0,
2010-03-22, 00:38:04,VALID,999.014,VALID,0,VALID,90.5483,VALID,0,VALID,23.8768,VALID,107,VALID,0,
2010-03-22, 00:39:04,VALID,999.001,VALID,0,VALID,90.4568,VALID,0,VALID,23.8165,VALID,107,VALID,0,
2010-03-22, 00:40:04,VALID,998.981,VALID,0,VALID,90.9527,VALID,0,VALID,23.8183,VALID,106,VALID,0.0285156,
2010-03-22, 00:41:04,VALID,998.986,VALID,0,VALID,90.9603,VALID,0,VALID,23.8768,VALID,88,VALID,0.650781,
2010-03-22, 00:42:04,VALID,998.973,VALID,0,VALID,90.9603,VALID,0,VALID,23.9159,VALID,89,VALID,0.628516,
2010-03-22, 00:43:04,VALID,998.952,VALID,0,VALID,90.8154,VALID,0,VALID,23.9354,VALID,89,VALID,0.530859,
2010-03-22, 00:44:04,VALID,998.969,VALID,0,VALID,90.5636,VALID,0,VALID,23.9744,VALID,103,VALID,0.821484,
2010-03-22, 00:45:04,VALID,998.963,VALID,0,VALID,90.3957,VALID,0,VALID,23.9939,VALID,98,VALID,0.677734,
2010-03-22, 00:46:04,VALID,998.952,VALID,0,VALID,90.3576,VALID,0,VALID,24.0134,VALID,98,VALID,0.314063,
2010-03-22, 00:47:04,VALID,998.937,VALID,0,VALID,90.205,VALID,0,VALID,24.0329,VALID,97,VALID,0.359766,
2010-03-22, 00:48:04,VALID,998.949,VALID,0,VALID,90.1211,VALID,0,VALID,24.0329,VALID,98,VALID,0.340625,
2010-03-22, 00:49:04,VALID,998.951,VALID,0,VALID,89.938,VALID,0,VALID,24.0329,VALID,98,VALID,0,
2010-03-22, 00:50:04,VALID,998.929,VALID,0,VALID,90.0906,VALID,0,VALID,24.0525,VALID,83,VALID,0,
2010-03-22, 00:51:04,VALID,998.929,VALID,0,VALID,89.9609,VALID,0,VALID,24.0329,VALID,83,VALID,0,
2010-03-22, 00:52:04,VALID,998.887,VALID,0,VALID,89.8922,VALID,0,VALID,24.0134,VALID,83,VALID,0,
2010-03-22, 00:53:04,VALID,998.858,VALID,0,VALID,89.9532,VALID,0,VALID,23.9939,VALID,82,VALID,0,
2010-03-22, 00:54:04,VALID,998.837,VALID,0,VALID,89.9151,VALID,0,VALID,23.9744,VALID,82,VALID,0,
2010-03-22, 00:55:04,VALID,998.861,VALID,0,VALID,90.0753,VALID,0,VALID,23.9744,VALID,82,VALID,0,
2010-03-22, 00:56:04,VALID,998.83,VALID,0,VALID,90.0219,VALID,0,VALID,23.9549,VALID,82,VALID,0,
2010-03-22, 00:57:04,VALID,998.849,VALID,0,VALID,90.0143,VALID,0,VALID,23.9354,VALID,82,VALID,0,
2010-03-22, 00:58:04,VALID,998.837,VALID,0,VALID,90.2203,VALID,0,VALID,23.9354,VALID,82,VALID,0,
2010-03-22, 00:59:04,VALID,998.836,VALID,0,VALID,90.2889,VALID,0,VALID,23.914,VALID,82,VALID,0,
2010-03-22, 01:00:04,VALID,998.864,VALID,0,VALID,90.3423,VALID,0,VALID,23.9354,VALID,82,VALID,0,
2010-03-22, 01:01:04,VALID,998.833,VALID,0,VALID,90.2431,VALID,0,VALID,23.9159,VALID,82,VALID,0,
2010-03-22, 01:02:04,VALID,998.805,VALID,0,VALID,90.1974,VALID,0,VALID,23.875,VALID,82,VALID,0,
2010-03-22, 01:03:04,VALID,998.866,VALID,0,VALID,90.144,VALID,0,VALID,23.8378,VALID,82,VALID,0,
2010-03-22, 01:04:04,VALID,998.855,VALID,0,VALID,90.1516,VALID,0,VALID,23.7988,VALID,82,VALID,0,
2010-03-22, 01:05:04,VALID,998.842,VALID,0,VALID,90.2203,VALID,0,VALID,23.7597,VALID,82,VALID,0,
2010-03-22, 01:06:04,VALID,998.846,VALID,0,VALID,90.2279,VALID,0,VALID,23.7402,VALID,82,VALID,0,
2010-03-22, 01:07:04,VALID,998.876,VALID,0,VALID,90.3805,VALID,0,VALID,23.7189,VALID,82,VALID,0,
2010-03-22, 01:08:04,VALID,998.889,VALID,0,VALID,90.5941,VALID,0,VALID,23.7402,VALID,82,VALID,0,
2010-03-22, 01:09:04,VALID,998.896,VALID,0,VALID,90.762,VALID,0,VALID,23.7597,VALID,82,VALID,0,
2010-03-22, 01:10:04,VALID,998.879,VALID,0,VALID,90.8383,VALID,0,VALID,23.7793,VALID,82,VALID,0,
2010-03-22, 01:11:04,VALID,998.866,VALID,0,VALID,90.7009,VALID,0,VALID,23.7793,VALID,82,VALID,0,
2010-03-22, 01:12:04,VALID,998.875,VALID,0,VALID,90.6094,VALID,0,VALID,23.7597,VALID,82,VALID,0,
2010-03-22, 01:13:04,VALID,998.864,VALID,0,VALID,90.7085,VALID,0,VALID,23.7402,VALID,82,VALID,0,
2010-03-22, 01:14:04,VALID,998.885,VALID,0,VALID,90.6704,VALID,0,VALID,23.7207,VALID,82,VALID,0,
2010-03-22, 01:15:04,VALID,998.866,VALID,0,VALID,90.5636,VALID,0,VALID,23.7207,VALID,82,VALID,0,
2010-03-22, 01:16:04,VALID,998.829,VALID,0,VALID,90.6628,VALID,0,VALID,23.7012,VALID,82,VALID,0,
2010-03-22, 01:17:04,VALID,998.836,VALID,0,VALID,90.6628,VALID,0,VALID,23.7012,VALID,82,VALID,0,
2010-03-22, 01:18:04,VALID,998.827,VALID,0,VALID,90.6475,VALID,0,VALID,23.6817,VALID,82,VALID,0,
2010-03-22, 01:19:04,VALID,998.827,VALID,0,VALID,90.7009,VALID,0,VALID,23.6622,VALID,82,VALID,0,
2010-03-22, 01:20:04,VALID,998.772,VALID,0,VALID,90.823,VALID,0,VALID,23.6409,VALID,82,VALID,0,
2010-03-22, 01:21:04,VALID,998.801,VALID,0,VALID,90.8535,VALID,0,VALID,23.6409,VALID,82,VALID,0,
2010-03-22, 01:22:04,VALID,998.811,VALID,0,VALID,90.8764,VALID,0,VALID,23.6622,VALID,82,VALID,0,
2010-03-22, 01:23:04,VALID,998.8,VALID,0,VALID,90.9222,VALID,0,VALID,23.6427,VALID,82,VALID,0,
2010-03-22, 01:24:04,VALID,998.777,VALID,0,VALID,90.884,VALID,0,VALID,23.6214,VALID,82,VALID,0,
2010-03-22, 01:25:04,VALID,998.802,VALID,0,VALID,90.8459,VALID,0,VALID,23.6232,VALID,82,VALID,0,
2010-03-22, 01:26:04,VALID,998.784,VALID,0,VALID,90.8306,VALID,0,VALID,23.5841,VALID,82,VALID,0,
2010-03-22, 01:27:04,VALID,998.801,VALID,0,VALID,90.8001,VALID,0,VALID,23.5664,VALID,82,VALID,0,
2010-03-22, 01:28:04,VALID,998.787,VALID,0,VALID,91.0061,VALID,0,VALID,23.5451,VALID,82,VALID,0,
2010-03-22, 01:29:04,VALID,998.807,VALID,0,VALID,91.1968,VALID,0,VALID,23.5646,VALID,82,VALID,0,
2010-03-22, 01:30:04,VALID,998.785,VALID,0,VALID,91.2808,VALID,0,VALID,23.5841,VALID,84,VALID,0,
2010-03-22, 01:31:04,VALID,998.756,VALID,0,VALID,91.1968,VALID,0,VALID,23.5841,VALID,103,VALID,0,
2010-03-22, 01:32:04,VALID,998.776,VALID,0,VALID,91.1892,VALID,0,VALID,23.6036,VALID,128,VALID,0.123047,
2010-03-22, 01:33:04,VALID,998.735,VALID,0,VALID,91.1053,VALID,0,VALID,23.6019,VALID,128,VALID,0.714844,
2010-03-22, 01:34:04,VALID,998.743,VALID,0,VALID,91.1282,VALID,0,VALID,23.6427,VALID,128,VALID,0.776953,
2010-03-22, 01:35:04,VALID,998.696,VALID,0,VALID,91.0214,VALID,0,VALID,23.6817,VALID,133,VALID,0.86875,
2010-03-22, 01:36:04,VALID,998.712,VALID,0,VALID,90.8459,VALID,0,VALID,23.7012,VALID,145,VALID,0.880469,
2010-03-22, 01:37:04,VALID,998.671,VALID,0,VALID,90.6246,VALID,0,VALID,23.7012,VALID,150,VALID,0.835156,
2010-03-22, 01:38:04,VALID,998.686,VALID,0,VALID,90.5483,VALID,0,VALID,23.7207,VALID,149,VALID,0.880078,
2010-03-22, 01:39:04,VALID,998.702,VALID,0,VALID,90.3118,VALID,0,VALID,23.7207,VALID,143,VALID,1.175,
2010-03-22, 01:40:04,VALID,998.651,VALID,0,VALID,90.0906,VALID,0,VALID,23.7402,VALID,142,VALID,1.1332,
2010-03-22, 01:41:04,VALID,998.672,VALID,0,VALID,89.9151,VALID,0,VALID,23.7402,VALID,142,VALID,1.11133,
2010-03-22, 01:42:04,VALID,998.661,VALID,0,VALID,89.732,VALID,0,VALID,23.7384,VALID,144,VALID,0.907812,
2010-03-22, 01:43:04,VALID,998.696,VALID,0,VALID,89.5412,VALID,0,VALID,23.7402,VALID,143,VALID,0.816797,
2010-03-22, 01:44:04,VALID,998.679,VALID,0,VALID,89.5336,VALID,0,VALID,23.7207,VALID,141,VALID,0.815625,
2010-03-22, 01:45:04,VALID,998.68,VALID,0,VALID,89.4802,VALID,0,VALID,23.7207,VALID,141,VALID,0.783594,
2010-03-22, 01:46:04,VALID,998.666,VALID,0,VALID,89.3657,VALID,0,VALID,23.6994,VALID,131,VALID,0.74375,
2010-03-22, 01:47:04,VALID,998.657,VALID,0,VALID,89.3657,VALID,0,VALID,23.7012,VALID,126,VALID,0.731641,
2010-03-22, 01:48:04,VALID,998.637,VALID,0,VALID,89.4191,VALID,0,VALID,23.6604,VALID,120,VALID,0.727344,
2010-03-22, 01:49:04,VALID,998.62,VALID,0,VALID,89.4344,VALID,0,VALID,23.6622,VALID,115,VALID,0.820313,
2010-03-22, 01:50:04,VALID,998.605,VALID,0,VALID,89.3276,VALID,0,VALID,23.6622,VALID,110,VALID,1.00781,
2010-03-22, 01:51:04,VALID,998.578,VALID,0,VALID,89.2055,VALID,0.112286,VALID,23.6427,VALID,103,VALID,0.749219,
2010-03-22, 01:52:04,VALID,998.568,VALID,0,VALID,89.32,VALID,0,VALID,23.6232,VALID,102,VALID,0.74375,
2010-03-22, 01:53:04,VALID,998.572,VALID,0,VALID,89.2513,VALID,0,VALID,23.6036,VALID,97,VALID,0.734375,
2010-03-22, 01:54:04,VALID,998.558,VALID,0,VALID,89.3734,VALID,0,VALID,23.6036,VALID,102,VALID,1.06133,
2010-03-22, 01:55:04,VALID,998.536,VALID,0,VALID,89.4649,VALID,0,VALID,23.5433,VALID,102,VALID,0.866406,
2010-03-22, 01:56:04,VALID,998.53,VALID,0,VALID,89.4268,VALID,0,VALID,23.5646,VALID,102,VALID,0.503516,
2010-03-22, 01:57:04,VALID,998.525,VALID,0,VALID,89.6938,VALID,0,VALID,23.5238,VALID,102,VALID,0.657031,
2010-03-22, 01:58:04,VALID,998.485,VALID,0,VALID,89.8693,VALID,0,VALID,23.5451,VALID,90,VALID,0.545703,
2010-03-22, 01:59:04,VALID,998.528,VALID,0,VALID,89.8083,VALID,0,VALID,23.5451,VALID,90,VALID,0.187891,
2010-03-22, 02:00:04,VALID,998.53,VALID,0,VALID,89.8998,VALID,0,VALID,23.5043,VALID,90,VALID,0.0308594,
2010-03-22, 02:01:04,VALID,998.503,VALID,0,VALID,89.8769,VALID,0,VALID,23.5256,VALID,90,VALID,0,
2010-03-22, 02:02:04,VALID,998.515,VALID,0,VALID,89.8617,VALID,0,VALID,23.4866,VALID,90,VALID,0,
2010-03-22, 02:03:04,VALID,998.497,VALID,0,VALID,89.854,VALID,0,VALID,23.4866,VALID,90,VALID,0,
2010-03-22, 02:04:04,VALID,998.489,VALID,0,VALID,89.9303,VALID,0,VALID,23.428,VALID,90,VALID,0,
2010-03-22, 02:05:04,VALID,998.453,VALID,0,VALID,89.9837,VALID,0,VALID,23.428,VALID,90,VALID,0,
2010-03-22, 02:06:04,VALID,998.452,VALID,0,VALID,90.0143,VALID,0,VALID,23.389,VALID,90,VALID,0,
2010-03-22, 02:07:04,VALID,998.438,VALID,0,VALID,90.1134,VALID,0,VALID,23.3695,VALID,90,VALID,0,
2010-03-22, 02:08:04,VALID,998.433,VALID,0,VALID,90.0906,VALID,0,VALID,23.3695,VALID,90,VALID,0,
2010-03-22, 02:09:04,VALID,998.44,VALID,0,VALID,90.2813,VALID,0,VALID,23.3695,VALID,90,VALID,0.276953,
2010-03-22, 02:10:04,VALID,998.44,VALID,0,VALID,90.35,VALID,0,VALID,23.3695,VALID,90,VALID,0.2625,
2010-03-22, 02:11:04,VALID,998.445,VALID,0,VALID,90.2966,VALID,0,VALID,23.3677,VALID,90,VALID,0.221094,
2010-03-22, 02:12:04,VALID,998.492,VALID,0,VALID,90.2584,VALID,0,VALID,23.3695,VALID,90,VALID,0,
2010-03-22, 02:13:04,VALID,998.48,VALID,0,VALID,90.3652,VALID,0,VALID,23.389,VALID,90,VALID,0,
2010-03-22, 02:14:04,VALID,998.472,VALID,0,VALID,90.4415,VALID,0,VALID,23.389,VALID,90,VALID,0,
2010-03-22, 02:15:04,VALID,998.45,VALID,0,VALID,90.5026,VALID,0,VALID,23.4085,VALID,90,VALID,0,
2010-03-22, 02:16:04,VALID,998.463,VALID,0,VALID,90.5178,VALID,0,VALID,23.4067,VALID,90,VALID,0,
2010-03-22, 02:17:04,VALID,998.445,VALID,0,VALID,90.5788,VALID,0,VALID,23.4475,VALID,90,VALID,0,
2010-03-22, 02:18:04,VALID,998.404,VALID,0,VALID,90.5712,VALID,0,VALID,23.4671,VALID,90,VALID,0,
2010-03-22, 02:19:04,VALID,998.408,VALID,0,VALID,90.5026,VALID,0,VALID,23.4866,VALID,91,VALID,0,
2010-03-22, 02:20:04,VALID,998.404,VALID,0,VALID,90.5865,VALID,0,VALID,23.4848,VALID,99,VALID,0,
2010-03-22, 02:21:04,VALID,998.385,VALID,0,VALID,90.5865,VALID,0,VALID,23.5256,VALID,99,VALID,0,
2010-03-22, 02:22:04,VALID,998.37,VALID,0,VALID,90.6246,VALID,0,VALID,23.5256,VALID,99,VALID,0,
2010-03-22, 02:23:04,VALID,998.381,VALID,0,VALID,90.6246,VALID,0,VALID,23.5646,VALID,99,VALID,0,
2010-03-22, 02:24:04,VALID,998.358,VALID,0,VALID,90.5788,VALID,0,VALID,23.5646,VALID,99,VALID,0,
2010-03-22, 02:25:04,VALID,998.368,VALID,0,VALID,90.35,VALID,0,VALID,23.5451,VALID,99,VALID,0.425,
2010-03-22, 02:26:04,VALID,998.376,VALID,0,VALID,90.5102,VALID,0,VALID,23.5238,VALID,99,VALID,0.455078,
2010-03-22, 02:27:04,VALID,998.4,VALID,0,VALID,90.2889,VALID,0,VALID,23.5646,VALID,99,VALID,0.462109,
2010-03-22, 02:28:04,VALID,998.411,VALID,0,VALID,90.2813,VALID,0,VALID,23.5256,VALID,99,VALID,0.373047,
2010-03-22, 02:29:04,VALID,998.434,VALID,0,VALID,90.3652,VALID,0,VALID,23.5256,VALID,99,VALID,0.00195313,
2010-03-22, 02:30:04,VALID,998.438,VALID,0,VALID,90.1592,VALID,0,VALID,23.5061,VALID,99,VALID,0,
2010-03-22, 02:31:04,VALID,998.444,VALID,0,VALID,90.0677,VALID,0,VALID,23.4671,VALID,99,VALID,0,
2010-03-22, 02:32:04,VALID,998.44,VALID,0,VALID,89.999,VALID,0,VALID,23.428,VALID,99,VALID,0,
2010-03-22, 02:33:04,VALID,998.439,VALID,0,VALID,90.3423,VALID,0,VALID,23.389,VALID,99,VALID,0,
2010-03-22, 02:34:04,VALID,998.424,VALID,0,VALID,90.4797,VALID,0,VALID,23.428,VALID,99,VALID,0,
2010-03-22, 02:35:04,VALID,998.418,VALID,0,VALID,90.5178,VALID,0,VALID,23.428,VALID,99,VALID,0,
2010-03-22, 02:36:04,VALID,998.427,VALID,0,VALID,90.4339,VALID,0,VALID,23.428,VALID,99,VALID,0,
2010-03-22, 02:37:04,VALID,998.415,VALID,0,VALID,90.6017,VALID,0,VALID,23.428,VALID,99,VALID,0,
2010-03-22, 02:38:04,VALID,998.385,VALID,0,VALID,90.5102,VALID,0,VALID,23.4263,VALID,99,VALID,0,
2010-03-22, 02:39:04,VALID,998.384,VALID,0,VALID,90.5254,VALID,0,VALID,23.4475,VALID,99,VALID,0,
2010-03-22, 02:40:04,VALID,998.363,VALID,0,VALID,90.5865,VALID,0,VALID,23.4475,VALID,99,VALID,0,
2010-03-22, 02:41:04,VALID,998.315,VALID,0,VALID,90.6323,VALID,0,VALID,23.4671,VALID,99,VALID,0,
2010-03-22, 02:42:04,VALID,998.306,VALID,0,VALID,90.5636,VALID,0,VALID,23.4866,VALID,99,VALID,0,
2010-03-22, 02:43:04,VALID,998.315,VALID,0,VALID,90.617,VALID,0,VALID,23.4866,VALID,99,VALID,0,
2010-03-22, 02:44:04,VALID,998.322,VALID,0,VALID,90.472,VALID,0,VALID,23.4671,VALID,99,VALID,0,
2010-03-22, 02:45:04,VALID,998.319,VALID,0,VALID,90.5636,VALID,0,VALID,23.4671,VALID,99,VALID,0,
2010-03-22, 02:46:04,VALID,998.28,VALID,0,VALID,90.5636,VALID,0,VALID,23.4475,VALID,99,VALID,0,
2010-03-22, 02:47:04,VALID,998.317,VALID,0,VALID,90.6094,VALID,0,VALID,23.428,VALID,99,VALID,0,
2010-03-22, 02:48:04,VALID,998.284,VALID,0,VALID,90.5941,VALID,0,VALID,23.4085,VALID,99,VALID,0,
2010-03-22, 02:49:04,VALID,998.298,VALID,0,VALID,90.5712,VALID,0,VALID,23.389,VALID,99,VALID,0,
2010-03-22, 02:50:04,VALID,998.291,VALID,0,VALID,90.7391,VALID,0,VALID,23.389,VALID,99,VALID,0,
2010-03-22, 02:51:04,VALID,998.301,VALID,0,VALID,90.7849,VALID,0,VALID,23.389,VALID,99,VALID,0,
2010-03-22, 02:52:04,VALID,998.287,VALID,0,VALID,90.7925,VALID,0,VALID,23.389,VALID,99,VALID,0,
2010-03-22, 02:53:04,VALID,998.338,VALID,0,VALID,90.9146,VALID,0,VALID,23.4085,VALID,99,VALID,0,
2010-03-22, 02:54:04,VALID,998.342,VALID,0,VALID,90.8688,VALID,0,VALID,23.3872,VALID,99,VALID,0,
2010-03-22, 02:55:04,VALID,998.329,VALID,0,VALID,90.8383,VALID,0,VALID,23.4085,VALID,99,VALID,0,
2010-03-22, 02:56:04,VALID,998.382,VALID,0,VALID,90.884,VALID,0,VALID,23.389,VALID,99,VALID,0,
2010-03-22, 02:57:04,VALID,998.37,VALID,0,VALID,90.884,VALID,0,VALID,23.389,VALID,99,VALID,0,
2010-03-22, 02:58:04,VALID,998.367,VALID,0,VALID,90.7543,VALID,0,VALID,23.3695,VALID,99,VALID,0,
2010-03-22, 02:59:04,VALID,998.383,VALID,0,VALID,90.8077,VALID,0,VALID,23.3287,VALID,99,VALID,0,
2010-03-22, 03:00:04,VALID,998.385,VALID,0,VALID,90.8993,VALID,0,VALID,23.35,VALID,99,VALID,0.846094,
2010-03-22, 03:01:04,VALID,998.374,VALID,0,VALID,91.0443,VALID,0,VALID,23.3908,VALID,99,VALID,0.886328,
2010-03-22, 03:02:04,VALID,998.33,VALID,0,VALID,91.1587,VALID,0,VALID,23.4103,VALID,99,VALID,0.944922,
2010-03-22, 03:03:04,VALID,998.339,VALID,0,VALID,91.1053,VALID,0,VALID,23.4085,VALID,99,VALID,0.74375,
2010-03-22, 03:04:04,VALID,998.35,VALID,0,VALID,90.9909,VALID,0,VALID,23.4493,VALID,99,VALID,0.508594,
2010-03-22, 03:05:04,VALID,998.329,VALID,0,VALID,90.9146,VALID,0,VALID,23.4298,VALID,99,VALID,0.384375,
2010-03-22, 03:06:04,VALID,998.333,VALID,0,VALID,90.823,VALID,0,VALID,23.4298,VALID,99,VALID,0,
2010-03-22, 03:07:04,VALID,998.346,VALID,0,VALID,90.7772,VALID,0,VALID,23.4103,VALID,99,VALID,0,
2010-03-22, 03:08:04,VALID,998.359,VALID,0,VALID,90.6857,VALID,0,VALID,23.4103,VALID,99,VALID,0,
2010-03-22, 03:09:04,VALID,998.326,VALID,0,VALID,90.6551,VALID,0,VALID,23.3908,VALID,99,VALID,0,
2010-03-22, 03:10:04,VALID,998.351,VALID,0,VALID,90.5636,VALID,0,VALID,23.3518,VALID,99,VALID,0,
2010-03-22, 03:11:04,VALID,998.349,VALID,0,VALID,90.5178,VALID,0,VALID,23.3323,VALID,99,VALID,0,
2010-03-22, 03:12:04,VALID,998.332,VALID,0,VALID,90.556,VALID,0,VALID,23.2737,VALID,99,VALID,0,
2010-03-22, 03:13:04,VALID,998.347,VALID,0,VALID,90.884,VALID,0,VALID,23.2932,VALID,99,VALID,0,
2010-03-22, 03:14:04,VALID,998.363,VALID,0,VALID,90.9756,VALID,0,VALID,23.311,VALID,99,VALID,0,
2010-03-22, 03:15:04,VALID,998.373,VALID,0,VALID,91.09,VALID,0,VALID,23.3323,VALID,99,VALID,0,
2010-03-22, 03:16:04,VALID,998.362,VALID,0,VALID,91.0595,VALID,0,VALID,23.35,VALID,99,VALID,0,
2010-03-22, 03:17:04,VALID,998.386,VALID,0,VALID,91.0137,VALID,0,VALID,23.3287,VALID,99,VALID,0,
2010-03-22, 03:18:04,VALID,998.378,VALID,0,VALID,90.8993,VALID,0,VALID,23.311,VALID,99,VALID,0,
2010-03-22, 03:19:04,VALID,998.382,VALID,0,VALID,90.8383,VALID,0,VALID,23.2719,VALID,99,VALID,0,
2010-03-22, 03:20:04,VALID,998.377,VALID,0,VALID,90.823,VALID,0,VALID,23.2524,VALID,99,VALID,0,
2010-03-22, 03:21:04,VALID,998.38,VALID,0,VALID,90.7543,VALID,0,VALID,23.1921,VALID,99,VALID,0,
2010-03-22, 03:22:04,VALID,998.409,VALID,0,VALID,90.8535,VALID,0,VALID,23.1531,VALID,99,VALID,0,
2010-03-22, 03:23:04,VALID,998.403,VALID,0,VALID,90.9069,VALID,0,VALID,23.1336,VALID,99,VALID,0,
2010-03-22, 03:24:04,VALID,998.413,VALID,0,VALID,91.2274,VALID,0,VALID,23.1549,VALID,99,VALID,0,
2010-03-22, 03:25:04,VALID,998.397,VALID,0,VALID,91.5249,VALID,0,VALID,23.1921,VALID,99,VALID,0,
2010-03-22, 03:26:04,VALID,998.411,VALID,0,VALID,91.5097,VALID,0,VALID,23.2524,VALID,99,VALID,0.337891,
2010-03-22, 03:27:04,VALID,998.454,VALID,0,VALID,91.5249,VALID,0,VALID,23.2719,VALID,105,VALID,0.449609,
2010-03-22, 03:28:04,VALID,998.472,VALID,0,VALID,91.5097,VALID,0,VALID,23.2915,VALID,107,VALID,0.485156,
2010-03-22, 03:29:04,VALID,998.469,VALID,0,VALID,91.5173,VALID,0,VALID,23.2897,VALID,107,VALID,0.427344,
2010-03-22, 03:30:04,VALID,998.493,VALID,0,VALID,91.4486,VALID,0,VALID,23.311,VALID,107,VALID,0.252344,
2010-03-22, 03:31:04,VALID,998.498,VALID,0,VALID,91.3189,VALID,0,VALID,23.311,VALID,107,VALID,0,
2010-03-22, 03:32:04,VALID,998.497,VALID,0,VALID,91.2655,VALID,0,VALID,23.3305,VALID,118,VALID,0,
2010-03-22, 03:33:04,VALID,998.499,VALID,0,VALID,91.1129,VALID,0,VALID,23.2915,VALID,119,VALID,0,
2010-03-22, 03:34:04,VALID,998.497,VALID,0,VALID,91.1053,VALID,0,VALID,23.2719,VALID,119,VALID,0,
2010-03-22, 03:35:04,VALID,998.523,VALID,0,VALID,91.0824,VALID,0,VALID,23.2915,VALID,119,VALID,0,
2010-03-22, 03:36:04,VALID,998.539,VALID,0,VALID,91.2426,VALID,0,VALID,23.2719,VALID,96,VALID,0,
2010-03-22, 03:37:04,VALID,998.537,VALID,0,VALID,91.1816,VALID,0,VALID,23.2915,VALID,99,VALID,0,
2010-03-22, 03:38:04,VALID,998.572,VALID,0,VALID,91.1511,VALID,0,VALID,23.2915,VALID,116,VALID,0,
2010-03-22, 03:39:04,VALID,998.558,VALID,0,VALID,90.9527,VALID,0,VALID,23.2507,VALID,128,VALID,0,
2010-03-22, 03:40:04,VALID,998.536,VALID,0,VALID,90.9832,VALID,0,VALID,23.2897,VALID,132,VALID,0,
2010-03-22, 03:41:04,VALID,998.525,VALID,0,VALID,90.823,VALID,0,VALID,23.311,VALID,132,VALID,0,
2010-03-22, 03:42:04,VALID,998.498,VALID,0,VALID,90.9832,VALID,0,VALID,23.2897,VALID,132,VALID,0,
2010-03-22, 03:43:04,VALID,998.456,VALID,0,VALID,90.9222,VALID,0,VALID,23.35,VALID,132,VALID,0,
2010-03-22, 03:44:04,VALID,998.446,VALID,0,VALID,90.9527,VALID,0,VALID,23.3482,VALID,132,VALID,0,
2010-03-22, 03:45:04,VALID,998.441,VALID,0,VALID,90.8611,VALID,0,VALID,23.3677,VALID,135,VALID,0,
2010-03-22, 03:46:04,VALID,998.44,VALID,0,VALID,90.7696,VALID,0,VALID,23.389,VALID,142,VALID,0,
2010-03-22, 03:47:04,VALID,998.416,VALID,0,VALID,90.7467,VALID,0,VALID,23.4085,VALID,142,VALID,0,
2010-03-22, 03:48:04,VALID,998.452,VALID,0,VALID,90.6399,VALID,0,VALID,23.428,VALID,142,VALID,0,
2010-03-22, 03:49:04,VALID,998.46,VALID,0,VALID,90.5865,VALID,0,VALID,23.4475,VALID,142,VALID,0,
2010-03-22, 03:50:04,VALID,998.483,VALID,0,VALID,90.4949,VALID,0,VALID,23.4475,VALID,142,VALID,0,
2010-03-22, 03:51:04,VALID,998.48,VALID,0,VALID,90.4263,VALID,0,VALID,23.4475,VALID,142,VALID,0,
2010-03-22, 03:52:04,VALID,998.477,VALID,0,VALID,90.3576,VALID,0,VALID,23.4475,VALID,143,VALID,0,
2010-03-22, 03:53:04,VALID,998.456,VALID,0,VALID,90.2203,VALID,0,VALID,23.4475,VALID,150,VALID,0,
2010-03-22, 03:54:04,VALID,998.469,VALID,0,VALID,90.1592,VALID,0,VALID,23.4475,VALID,150,VALID,0,
2010-03-22, 03:55:04,VALID,998.452,VALID,0,VALID,90.0753,VALID,0,VALID,23.428,VALID,150,VALID,0,
2010-03-22, 03:56:04,VALID,998.464,VALID,0,VALID,90.1058,VALID,0,VALID,23.4475,VALID,150,VALID,0,
2010-03-22, 03:57:04,VALID,998.451,VALID,0,VALID,90.0295,VALID,0,VALID,23.4671,VALID,149,VALID,0,